Waarnemingen

Advertentie
Mijn weer
Cabo Busto, Spanje (8010): temperatuur & dauwpunt: 19.05.2020 16:00:00 - 25.05.2020 16:00:00 (CEST)Cabo Busto, Spanje (8010): windsnelheid & windstoten: 19.05.2020 16:00:00 - 25.05.2020 16:00:00 (CEST)Cabo Busto, Spanje (8010): windrichting: 19.05.2020 16:00:00 - 25.05.2020 16:00:00 (CEST)Cabo Busto, Spanje (8010): luchtdruk: 19.05.2020 16:00:00 - 25.05.2020 16:00:00 (CEST)Cabo Busto, Spanje (8010): zicht: 19.05.2020 16:00:00 - 25.05.2020 16:00:00 (CEST)Cabo Busto, Spanje (8010): Zonneschijnduur: 19.05.2020 16:00:00 - 25.05.2020 16:00:00 (CEST)Cabo Busto, Spanje (8010): neerslag: 19.05.2020 16:00:00 - 25.05.2020 16:00:00 (CEST)
Datum & Tijd tt [°C] td [°C] ff [km/u] ff [kn] fx [km/u] fx [kn] dd ppp [hPa] vv [km] sd [min] rr [mm]
25.05.2020 16:00:00 - - - - - - - - - - -
25.05.2020 15:00:00 17,6 14,5 20 11 39 21 NO 1028,2 20 60 0,0
25.05.2020 14:00:00 - - - - - - - - - - -
25.05.2020 13:00:00 17,6 14,1 13 7 34 18 ONO 1028,1 20 60 0,0
25.05.2020 12:00:00 - - - - - - - - - - -
25.05.2020 11:00:00 17,1 13,3 12 6 23 13 NO 1027,7 13 60 0,0
25.05.2020 10:00:00 - - - - - - - - - - -
25.05.2020 09:00:00 15,9 12,8 13 7 22 12 O 1027,4 17 60 0,0
25.05.2020 08:00:00 - - - - - - - - - - -
25.05.2020 07:00:00 14,4 11,6 10 5 27 15 O 1027,1 17 0 0,0
25.05.2020 06:00:00 - - - - - - - - - - -
25.05.2020 05:00:00 14,4 11,6 18 10 40 21 NO 1027,2 13 0 0,0
25.05.2020 04:00:00 - - - - - - - - - - -
25.05.2020 03:00:00 14,6 11,3 16 9 32 18 NO 1026,9 17 0 0,0
25.05.2020 02:00:00 - - - - - - - - - - -
25.05.2020 01:00:00 14,5 11,2 22 12 40 22 ONO 1027,0 17 0 0,0
25.05.2020 00:00:00 - - - - - - - - - - -
24.05.2020 23:00:00 14,7 11,1 22 12 54 29 ONO 1027,0 17 0 0,0
24.05.2020 22:00:00 - - - - - - - - - - -
24.05.2020 21:00:00 15,2 11,3 29 15 56 30 NO 1026,8 14 7 0,0
24.05.2020 20:00:00 - - - - - - - - - - -
24.05.2020 19:00:00 15,5 11,3 32 17 63 34 NO 1027,0 15 60 0,0
24.05.2020 18:00:00 - - - - - - - - - - -
24.05.2020 17:00:00 16,0 11,8 37 20 68 37 NO 1027,0 19 48 0,0
24.05.2020 16:00:00 - - - - - - - - - - -
24.05.2020 15:00:00 16,6 11,9 37 20 67 36 NO 1028,1 19 60 0,0
24.05.2020 14:00:00 - - - - - - - - - - -
24.05.2020 13:00:00 16,6 11,3 35 19 66 35 NO 1028,2 18 60 0,0
24.05.2020 12:00:00 - - - - - - - - - - -
24.05.2020 11:00:00 16,5 10,2 25 14 54 29 NO 1028,8 20 60 0,0
24.05.2020 10:00:00 - - - - - - - - - - -
24.05.2020 09:00:00 15,5 8,9 29 15 54 29 ONO 1029,6 17 60 0,0
24.05.2020 08:00:00 - - - - - - - - - - -
24.05.2020 07:00:00 14,0 7,6 17 9 48 26 O 1029,6 20 0 0,0
24.05.2020 06:00:00 - - - - - - - - - - -
24.05.2020 05:00:00 14,6 8,1 26 14 47 26 O 1029,5 20 0 0,0
24.05.2020 04:00:00 - - - - - - - - - - -
24.05.2020 03:00:00 14,7 10,5 21 11 40 22 ONO 1030,6 20 0 0,0
24.05.2020 02:00:00 - - - - - - - - - - -
24.05.2020 01:00:00 15,1 11,1 21 11 44 24 ONO 1031,5 20 0 0,0
24.05.2020 00:00:00 - - - - - - - - - - -
23.05.2020 23:00:00 15,3 11,7 23 12 52 28 NO 1031,9 18 0 0,0
23.05.2020 22:00:00 - - - - - - - - - - -
23.05.2020 21:00:00 15,9 11,9 23 13 45 24 NO 1031,6 13 58 0,0
23.05.2020 20:00:00 - - - - - - - - - - -
23.05.2020 19:00:00 16,0 12,2 18 10 38 21 NO 1031,9 11 0 0,0
23.05.2020 18:00:00 - - - - - - - - - - -
23.05.2020 17:00:00 16,5 11,9 14 8 39 21 NNO 1032,1 12 0 0,0
23.05.2020 16:00:00 - - - - - - - - - - -
23.05.2020 15:00:00 16,9 12,2 9 5 36 19 NNW 1032,4 9 27 0,0
23.05.2020 14:00:00 - - - - - - - - - - -
23.05.2020 13:00:00 17,3 12,4 4 2 16 9 W 1032,6 12 30 0,0
23.05.2020 12:00:00 - - - - - - - - - - -
23.05.2020 11:00:00 16,7 12,8 7 4 11 6 NW 1032,1 9 60 0,0
23.05.2020 10:00:00 - - - - - - - - - - -
23.05.2020 09:00:00 14,7 12,5 6 3 14 7 ZZO 1031,2 20 24 0,0
23.05.2020 08:00:00 - - - - - - - - - - -
23.05.2020 07:00:00 13,7 11,4 8 4 17 9 Z 1029,9 14 0 0,2
23.05.2020 06:00:00 - - - - - - - - - - -
23.05.2020 05:00:00 14,7 12,0 14 8 26 14 WNW 1028,7 3,8 0 0,0
23.05.2020 04:00:00 - - - - - - - - - - -
23.05.2020 03:00:00 14,4 11,3 10 6 13 7 ZW 1028,7 14 0 0,0
23.05.2020 02:00:00 - - - - - - - - - - -
23.05.2020 01:00:00 14,4 12,2 9 5 15 8 Z 1028,5 20 0 0,0
23.05.2020 00:00:00 - - - - - - - - - - -
22.05.2020 23:00:00 14,8 12,6 15 8 20 11 W 1028,0 2,3 0 0,0
22.05.2020 22:00:00 - - - - - - - - - - -
22.05.2020 21:00:00 15,2 12,7 11 6 30 16 W 1026,7 3,7 0 0,0
22.05.2020 20:00:00 - - - - - - - - - - -
22.05.2020 19:00:00 16,9 12,6 10 6 19 11 W 1025,6 20 0 0,0
22.05.2020 18:00:00 - - - - - - - - - - -
22.05.2020 17:00:00 19,1 15,3 6 4 12 7 W 1025,7 20 11 0,0
22.05.2020 16:00:00 - - - - - - - - - - -
22.05.2020 15:00:00 17,9 14,6 13 7 29 16 NW 1025,5 16 30 0,0
22.05.2020 14:00:00 - - - - - - - - - - -
22.05.2020 13:00:00 21,3 13,0 11 6 21 11 O 1024,1 20 60 0,0
22.05.2020 12:00:00 - - - - - - - - - - -
22.05.2020 11:00:00 19,8 12,5 13 7 20 11 O 1023,6 20 60 0,0
22.05.2020 10:00:00 - - - - - - - - - - -
22.05.2020 09:00:00 17,3 13,1 11 6 16 9 ZZO 1023,3 20 60 0,0
22.05.2020 08:00:00 - - - - - - - - - - -
22.05.2020 07:00:00 14,2 10,0 8 5 15 8 Z 1022,8 20 0 0,0
22.05.2020 06:00:00 - - - - - - - - - - -
22.05.2020 05:00:00 14,3 11,1 6 4 14 8 Z 1021,7 20 0 0,0
22.05.2020 04:00:00 - - - - - - - - - - -
22.05.2020 03:00:00 15,3 11,4 8 5 20 11 Z 1021,1 20 0 0,0
22.05.2020 02:00:00 - - - - - - - - - - -
22.05.2020 01:00:00 16,1 10,9 3 2 15 8 O 1021,6 20 0 0,0
22.05.2020 00:00:00 - - - - - - - - - - -
21.05.2020 23:00:00 16,1 10,4 2 1 10 5 ONO 1020,9 20 0 0,0
21.05.2020 22:00:00 - - - - - - - - - - -
21.05.2020 21:00:00 17,2 13,6 6 4 16 8 WZW 1020,1 20 37 0,0
21.05.2020 20:00:00 - - - - - - - - - - -
21.05.2020 19:00:00 17,7 14,0 3 2 14 8 O 1018,7 13 60 0,0
21.05.2020 18:00:00 - - - - - - - - - - -
21.05.2020 17:00:00 17,6 13,8 9 5 - - ONO 1018,3 18 60 0,0
21.05.2020 16:00:00 - - - - - - - - - - -
21.05.2020 15:00:00 17,6 13,6 6 4 20 11 ONO 1018,8 20 60 0,0
21.05.2020 14:00:00 - - - - - - - - - - -
21.05.2020 13:00:00 16,9 12,6 12 7 23 13 ONO 1019,2 9 60 0,0
21.05.2020 12:00:00 - - - - - - - - - - -
21.05.2020 11:00:00 16,8 12,5 4 2 17 9 N 1019,8 20 60 0,0
21.05.2020 10:00:00 - - - - - - - - - - -
21.05.2020 09:00:00 13,5 10,9 12 7 20 11 OZO 1020,2 20 4 0,0
21.05.2020 08:00:00 - - - - - - - - - - -
21.05.2020 07:00:00 12,8 10,5 8 4 10 5 ZZO 1020,5 20 0 0,0
21.05.2020 06:00:00 - - - - - - - - - - -
21.05.2020 05:00:00 12,6 10,2 9 5 13 7 ZO 1020,8 20 0 0,0
21.05.2020 04:00:00 - - - - - - - - - - -
21.05.2020 03:00:00 13,2 10,4 8 4 13 7 OZO 1021,7 20 0 0,0
21.05.2020 02:00:00 - - - - - - - - - - -
21.05.2020 01:00:00 14,3 11,2 6 3 22 12 W 1022,7 20 0 0,0
21.05.2020 00:00:00 - - - - - - - - - - -
20.05.2020 23:00:00 14,4 11,3 16 8 39 21 W 1022,3 20 0 0,0
20.05.2020 22:00:00 - - - - - - - - - - -
20.05.2020 21:00:00 15,0 11,6 18 10 36 19 WNW 1021,5 20 40 0,0
20.05.2020 20:00:00 - - - - - - - - - - -
20.05.2020 19:00:00 17,0 13,0 22 12 34 19 W 1020,2 20 48 0,0
20.05.2020 18:00:00 - - - - - - - - - - -
20.05.2020 17:00:00 19,3 14,3 16 9 26 14 W 1019,0 20 60 0,0
20.05.2020 16:00:00 - - - - - - - - - - -
20.05.2020 15:00:00 18,8 14,5 13 7 22 12 W 1018,6 20 56 0,0
20.05.2020 14:00:00 - - - - - - - - - - -
20.05.2020 13:00:00 17,4 13,6 16 9 29 16 W 1019,1 19 45 0,0
20.05.2020 12:00:00 - - - - - - - - - - -
20.05.2020 11:00:00 17,7 12,1 23 12 34 18 W 1017,9 20 60 0,0
20.05.2020 10:00:00 - - - - - - - - - - -
20.05.2020 09:00:00 14,9 12,5 11 6 14 8 WZW 1017,5 20 60 0,0
20.05.2020 08:00:00 - - - - - - - - - - -
20.05.2020 07:00:00 13,1 11,3 13 7 16 8 ZZO 1016,7 20 0 0,0
20.05.2020 06:00:00 - - - - - - - - - - -
20.05.2020 05:00:00 13,1 11,1 5 3 12 7 Z 1017,2 16 0 0,0
20.05.2020 04:00:00 - - - - - - - - - - -
20.05.2020 03:00:00 13,9 11,6 4 2 6 4 ZZW 1018,4 20 0 0,0
20.05.2020 02:00:00 - - - - - - - - - - -
20.05.2020 01:00:00 14,8 12,1 8 4 11 6 O 1019,1 17 0 0,0
20.05.2020 00:00:00 - - - - - - - - - - -
19.05.2020 23:00:00 15,2 12,0 8 5 24 13 O 1019,3 20 0 0,0
19.05.2020 22:00:00 - - - - - - - - - - -
19.05.2020 21:00:00 15,7 12,8 16 9 36 19 O 1018,7 20 60 0,0
19.05.2020 20:00:00 - - - - - - - - - - -
19.05.2020 19:00:00 16,3 13,3 19 10 36 19 ONO 1019,1 20 60 0,0
19.05.2020 18:00:00 - - - - - - - - - - -
19.05.2020 17:00:00 16,4 13,5 23 13 42 23 ONO 1019,5 17 60 0,0
19.05.2020 16:00:00 - - - - - - - - - - -

tt = temperatuur
td = dauwpunt
ff = windsnelheid
fx = windstoten
dd = windrichting
ppp = luchtdruk
vv = zicht
sd = Zonneschijnduur
rr = neerslag

Weerstations in de omgeving